Weather History for 33345 - November, 2013

Change the Weather History Date:

Wednesday, November 20, 2013

  Actual Average Record
Temperature  
Mean Temperature 42 °F -  
Max Temperature 44 °F - - ()
Min Temperature 40 °F - - ()
Degree Days  
Heating Degree Days 23    
Moisture  
Dew Point 39 °F    
Average Humidity 86    
Maximum Humidity 93    
Minimum Humidity 70    
Precipitation  
Precipitation 0.00 in 0.07 in - ()
Sea Level Pressure  
Sea Level Pressure 30.01 in    
Wind  
Wind Speed 9 mph ()    
Max Wind Speed 13 mph    
Max Gust Speed 22 mph    
Visibility 5.9 miles    
Events Rain    
T = Trace of Precipitation, MM = Missing Value Source: Averaged Metar Reports

Daily Weather History Graph

Daily Weather History Graph

Search for Another Location

Airport or City:

Trip Planner

Search our weather history database for the weather conditions in past years. The results will help you decide how hot, cold, wet, or windy it might be!

Date:

Astronomy

Nov. 20, 2013 Rise Set
Actual Time 7:20 AM EET 4:06 PM EET
Civil Twilight 6:43 AM EET 4:43 PM EET
Nautical Twilight 6:03 AM EET 5:23 PM EET
Astronomical Twilight 5:24 AM EET 6:02 PM EET
Moon 6:31 PM EET (11/20) 9:32 AM EET (11/20)
Length of Visible Light 9h 59m
Length of Day
8h 46m
Waning Gibbous, 93% of the Moon is Illuminated
Nov 20
Waning Gibbous
Nov 25
Last Quarter
Dec 3
New
Dec 9
First Quarter
Dec 17
Full

Hourly Weather History & Observations

Time (EET) Temp. Windchill Dew Point Humidity Pressure Visibility Wind Dir Wind Speed Gust Speed Precip Events Conditions
12:00 AM 42.8 °F 37.6 °F 41.0 °F 93% 30.15 in 6.2 mi SE 8.9 mph - N/A   Overcast
12:30 AM 42.8 °F 37.6 °F 39.2 °F 87% 30.12 in 5.6 mi SSE 8.9 mph - N/A   Overcast
1:00 AM 42.8 °F 37.6 °F 39.2 °F 87% 30.12 in 6.2 mi SSE 8.9 mph - N/A   Overcast
1:30 AM 42.8 °F 37.6 °F 39.2 °F 87% 30.12 in 6.2 mi SE 8.9 mph - N/A   Overcast
2:00 AM 43 °F - 40 °F 83% 30.15 in 12 mi SSE 6.7 mph - -   Overcast
2:00 AM 42.8 °F 37.6 °F 39.2 °F 87% 30.12 in 6.2 mi SSE 8.9 mph - N/A   Overcast
2:30 AM 42.8 °F 37.6 °F 39.2 °F 87% 30.12 in 6.2 mi SSE 8.9 mph - N/A   Overcast
3:00 AM 42.8 °F 37.6 °F 39.2 °F 87% 30.09 in 6.2 mi SSE 8.9 mph - N/A   Overcast
3:30 AM 42.8 °F 37.6 °F 41.0 °F 93% 30.09 in 6.2 mi SE 8.9 mph - N/A   Overcast
4:00 AM 42.8 °F 36.7 °F 39.2 °F 87% 30.09 in 6.2 mi SSE 11.2 mph - N/A   Overcast
4:30 AM 42.8 °F 37.6 °F 39.2 °F 87% 30.09 in 6.2 mi SE 8.9 mph - N/A   Overcast
5:00 AM 43 °F - 37 °F 74% 30.12 in 12 mi SSE 6.7 mph - -   Mostly Cloudy
5:00 AM 42.8 °F 37.6 °F 39.2 °F 87% 30.09 in 6.2 mi SSE 8.9 mph - N/A   Overcast
5:30 AM 42.8 °F 36.7 °F 39.2 °F 87% 30.06 in 6.2 mi SE 11.2 mph - N/A   Overcast
6:00 AM 42.8 °F 37.6 °F 39.2 °F 87% 30.06 in 6.2 mi SSE 8.9 mph - N/A   Overcast
6:30 AM 42.8 °F 37.6 °F 39.2 °F 87% 30.06 in 6.2 mi SE 8.9 mph - N/A   Overcast
7:00 AM 42.8 °F 37.6 °F 37.4 °F 81% 30.06 in 6.2 mi SE 8.9 mph - N/A   Overcast
7:30 AM 42.8 °F 36.7 °F 37.4 °F 81% 30.06 in - SE 11.2 mph - N/A   Clear
8:00 AM 43 °F - 38 °F 77% 30.09 in 12 mi SSE 6.7 mph - -   Overcast
8:00 AM 42.8 °F 36.7 °F 37.4 °F 81% 30.06 in 6.2 mi SE 11.2 mph - N/A   Overcast
8:30 AM 42.8 °F 37.6 °F 37.4 °F 81% 30.04 in 6.2 mi SE 8.9 mph - N/A   Overcast
9:00 AM 42.8 °F 37.6 °F 39.2 °F 87% 30.04 in 6.2 mi SE 8.9 mph - N/A   Overcast
9:30 AM 42.8 °F 36.7 °F 37.4 °F 81% 30.04 in 6.2 mi SE 11.2 mph - N/A   Overcast
10:00 AM 44.6 °F 38.9 °F 39.2 °F 81% 30.04 in 6.2 mi SE 11.2 mph - N/A   Overcast
10:30 AM 44.6 °F 39.8 °F 39.2 °F 81% 30.04 in 6.2 mi SE 8.9 mph - N/A   Overcast
11:00 AM 44 °F - 37 °F 70% 30.05 in 12 mi SSE 8.9 mph - -   Overcast
11:00 AM 44.6 °F 38.9 °F 39.2 °F 81% 30.01 in 6.2 mi SE 11.2 mph - N/A   Overcast
11:30 AM 44.6 °F 38.9 °F 39.2 °F 81% 30.01 in 6.2 mi SE 11.2 mph - N/A Rain Light Rain
12:00 PM 44.6 °F 38.9 °F 39.2 °F 81% 30.01 in 6.2 mi SE 11.2 mph - N/A Rain Light Rain
12:30 PM 44.6 °F 38.9 °F 37.4 °F 76% 29.98 in 6.2 mi SE 11.2 mph - N/A   Overcast
1:00 PM 44.6 °F 38.9 °F 37.4 °F 76% 29.98 in 6.2 mi SE 11.2 mph - N/A   Overcast
1:30 PM 44.6 °F 38.9 °F 39.2 °F 81% 29.98 in - SE 11.2 mph - N/A   Clear
2:00 PM 44 °F - 38 °F 72% 30.01 in 12 mi SSE 8.9 mph - -   Partly Cloudy
2:00 PM 44.6 °F 39.8 °F 39.2 °F 81% 29.98 in 6.2 mi SE 8.9 mph - N/A   Overcast
2:30 PM 44.6 °F 38.9 °F 39.2 °F 81% 29.98 in 5.6 mi SE 11.2 mph - N/A Rain Light Rain
3:00 PM 42.8 °F 37.6 °F 39.2 °F 87% 29.95 in - ESE 8.9 mph - N/A Rain Light Rain
3:30 PM 42.8 °F 37.6 °F 41.0 °F 93% 29.95 in 3.7 mi ESE 8.9 mph - N/A Rain Light Rain
4:00 PM 42.8 °F 36.7 °F 39.2 °F 87% 29.95 in 4.3 mi SE 11.2 mph - N/A   Overcast
4:30 PM 42.8 °F 36.7 °F 39.2 °F 87% 29.95 in 4.3 mi ESE 11.2 mph - N/A   Overcast
5:00 PM 41 °F - 39 °F 89% 29.99 in 6 mi SE 4.5 mph - -   Partly Cloudy
5:00 PM 42.8 °F 36.7 °F 39.2 °F 87% 29.95 in 4.3 mi SE 11.2 mph - N/A   Overcast
5:30 PM 42.8 °F 36.7 °F 39.2 °F 87% 29.95 in 4.3 mi ESE 11.2 mph - N/A   Light Drizzle
6:00 PM 42.8 °F 37.6 °F 39.2 °F 87% 29.95 in 3.7 mi ESE 8.9 mph - N/A   Overcast
6:30 PM 42.8 °F 37.6 °F 39.2 °F 87% 29.95 in 3.1 mi SE 8.9 mph - N/A   Light Drizzle
7:00 PM 42.8 °F 37.6 °F 41.0 °F 93% 29.95 in 3.1 mi SE 8.9 mph - N/A   Light Drizzle
7:30 PM 42.8 °F 36.7 °F 41.0 °F 93% 29.92 in 3.1 mi SE 11.2 mph - N/A   Light Drizzle
8:00 PM 42 °F - 39 °F 87% 29.96 in 6 mi SSE 8.9 mph - -   Partly Cloudy
8:00 PM 42.8 °F 36.7 °F 39.2 °F 87% 29.92 in 3.1 mi ESE 11.2 mph - N/A   Overcast
8:30 PM 42.8 °F 36.7 °F 41.0 °F 93% 29.92 in 2.8 mi SE 11.2 mph - N/A   Light Drizzle
9:00 PM 42.8 °F 36.7 °F 41.0 °F 93% 29.92 in 3.1 mi SE 11.2 mph - N/A   Light Drizzle
9:30 PM 42.8 °F 36.7 °F 41.0 °F 93% 29.92 in 3.1 mi SE 11.2 mph - N/A   Overcast
10:00 PM 42.8 °F 36.7 °F 41.0 °F 93% 29.92 in 3.7 mi SE 11.2 mph 22.4 mph N/A   Overcast
10:30 PM 42.8 °F 35.9 °F 41.0 °F 93% 29.92 in 3.7 mi SE 13.4 mph - N/A   Overcast
11:00 PM 42 °F - 40 °F 89% 29.94 in 6 mi SSE 11.2 mph - -   Overcast
11:00 PM 42.8 °F 36.7 °F 41.0 °F 93% 29.92 in - SE 11.2 mph 22.4 mph N/A   Overcast
11:30 PM 42.8 °F 36.7 °F 41.0 °F 93% 29.92 in 1.7 mi SE 11.2 mph - N/A   Light Drizzle